Aérodrome :
LOGIN :

S'inscrire | Disclaimer

   EN    FR    IT 

 










Légende :    VFR   VFR Marginal   IFR   IFR Intensif   IFR Très Intensif
Visi : 
Plafond : 
>= 8 km
>= 3000ft
5 à 8 km
1000 à 3000 ft
1500m à 5 km
500 à 1000 ft
800 à 1500m
200 à 500 ft
< 800m
< 200 ft
Symboles :   Orages  Brouillard  Fortes neiges  Fortes précipitations  Vent > 20 kt
SIGMETs :   Divers  Orages  Givrage  Turbulence  Onde Orograph.  Cendres Volcan.






- Altitude de l'aérodrome : 1161 ft
- Code IATA : RJL


LELO - Logroño-Agoncillo

DERNIER METAR :
  • 272030Z AUTO 27011KT CAVOK 07/02 Q1026

METARs EXPIRÉS :
  • 272000Z AUTO 27010KT CAVOK 08/02 Q1026
  • 271930Z AUTO 27007KT CAVOK 07/03 Q1026
  • 271830Z AUTO 26009KT CAVOK 10/03 Q1025
  • 271800Z AUTO 30007KT 260V010 CAVOK 11/02 Q1025

TAF TAF LELO
Valide du 27 à 21h jusqu'au 28 à 21h UTC


272000Z 2721/2821 29010KT CAVOK TX12/2815Z TN02/2806Z
BECMG 2810/2812 09012KT
TEMPO 2806/2810 VRB05KT
PROB30
TEMPO 2815/2821 3000 SHRA SCT030TCU



MET'MAP, la Météo Aéronautique d'un coup d'oeil ! - Copyright ORBIFLY Décembre 2007 - Disclaimer

ORBIFLY MET'MAP TEAM :

Programmation & Développement : Alexandra Zaïnal
Sur une idée originale de : Baudouin d'Aumeries
Assistance à la programmation : Marc-Olivier Méhu
Soutien technique & logistique : Manuel Goepfert

Contact : metmap@orbifly.com




SOURCES & CREDITS :

   NOAA